This demonstration page uses our WeatherBlox Daily Observations layout. Learn more.

Left ArrowRight Arrow

39.01783, -85.05884

Hourly Observations for March 8, 2022

Temp ( °F °C ) Dew Point ( °F °C ) Humidity (%) Winds ( mph kmh ) Pressure ( in mb ) Visibility ( mi km ) Precip ( " mm )
12:30 am 00:30 Cloudy 35 1.7 26 -3.3 70 70 NW 9 15 30.24 1024 10 16 0.00 0.00
12:52 am 00:52 Cloudy 35 1.7 27 -2.8 72 72 W 9 15 30.21 1023 10 16 0.00 0.00
1:52 am 01:52 Cloudy 35 1.7 26 -3.3 70 70 WNW 8 13 30.22 1023 10 16 0.00 0.00
2:52 am 02:52 Cloudy 34 1.1 24 -4.4 67 67 WNW 9 15 30.22 1024 10 16 0.00 0.00
3:52 am 03:52 Cloudy 34 1.1 24 -4.4 67 67 WNW 7 11 30.22 1023 10 16 0.00 0.00
4:52 am 04:52 Cloudy 34 1.1 25 -3.9 70 70 W 5 7 30.23 1024 10 16 0.00 0.00
5:52 am 05:52 Mostly Cloudy 34 1.1 24 -4.4 67 67 WNW 9 15 30.24 1024 10 16 0.00 0.00
6:11 am 06:11 Cloudy 34 1.1 25 -3.9 70 70 WNW 7 11 30.28 1025 10 16 0.00 0.00
6:52 am 06:52 Cloudy 34 1.1 25 -3.9 70 70 NNW 6 9 30.25 1024 10 16 0.00 0.00
7:52 am 07:52 Cloudy 34 1.1 24 -4.4 67 67 NNW 3 6 30.26 1025 10 16 0.00 0.00
8:52 am 08:52 Cloudy 35 1.7 23 -5 61 61 Calm 30.27 1025 10 16 0.00 0.00
9:39 am 09:39 Cloudy 35 1.7 24 -4.4 64 64 WSW 3 6 30.29 1026 10 16 0.00 0.00
9:52 am 09:52 Cloudy 35 1.7 25 -3.9 67 67 W 3 6 30.27 1025 10 16 0.00 0.00
10:52 am 10:52 Cloudy 36 2.2 25 -3.9 64 64 SSW 3 6 30.26 1025 10 16 0.00 0.00
11:52 am 11:52 Cloudy 37 2.8 26 -3.3 65 65 SE 6 9 30.24 1024 10 16 0.00 0.00
12:52 pm 12:52 Cloudy 38 3.3 27 -2.8 65 65 S 6 9 30.21 1023 10 16 0.00 0.00
1:52 pm 13:52 Cloudy 40 4.4 25 -3.9 55 55 NE 3 6 30.18 1022 10 16 0.00 0.00
2:52 pm 14:52 Mostly Cloudy 41 5 27 -2.8 57 57 VRB 3 6 30.14 1021 10 16 0.00 0.00
3:52 pm 15:52 Cloudy 42 5.6 27 -2.8 55 55 NE 8 13 30.11 1020 10 16 0.00 0.00
4:52 pm 16:52 Cloudy 42 5.6 26 -3.3 53 53 Calm 30.10 1019 10 16 0.00 0.00
5:52 pm 17:52 Cloudy 41 5 27 -2.8 57 57 NE 7 11 30.08 1019 10 16 0.00 0.00
6:52 pm 18:52 Cloudy 39 3.9 28 -2.2 65 65 E 5 7 30.06 1018 10 16 0.00 0.00
7:52 pm 19:52 Cloudy 40 4.4 28 -2.2 63 63 ESE 6 9 30.05 1018 10 16 0.00 0.00
8:52 pm 20:52 Cloudy 39 3.9 30 -1.1 70 70 ESE 9 15 30.07 1018 10 16 0.00 0.00
9:52 pm 21:52 Cloudy 39 3.9 31 -0.6 73 73 E 3 6 30.06 1018 10 16 0.00 0.00
10:52 pm 22:52 Mostly Clear 38 3.3 31 -0.6 76 76 E 6 9 30.03 1017 10 16 0.00 0.00
11:52 pm 23:52 Cloudy 38 3.3 31 -0.6 76 76 ESE 7 11 30.00 1016 10 16 0.00 0.00

Powered by AerisWeather